Location: Unspecified
(0.0000°N, 0.0000°E)
Time: 18:10:35
(UTC+00:00)

Hubble Space Telescope - Pass Details

Date: 16 January 2026
Orbit: 479 x 481 km, 28.5° (Epoch: 19 January)

Event Time Altitude Azimuth Distance (km) Brightness Sun altitude
Exits shadow 05:34:58 - 327° (NNW) 1,988 3.2 -8.1°
Reaches altitude 10° 05:36:01 10° 335° (NNW) 1,634 2.8 -7.9°
Maximum altitude 05:39:04 23° 29° (NNE) 1,047 2.4 -7.1°
Drops below altitude 10° 05:42:06 10° 83° (E) 1,637 4.4 -6.4°
Sets 05:44:37 0° 98° (E) 2,516 6.2 -5.9°
